Погода Окунев Нос

Погода Окунев Нос : погода сейчас, прогноз погоды и архив. Всё, что Вы хотите узнать о погоде Окунев Нос!

Поиск расширенной информации на нашем сайте:

Другие новости

Новости СМИ2

Главная страница сайта

Новости сайта

03.07.2017

Напоминаем, что на нашем специализированном сайте Метеоцентр.Азия вы можете получить высокодетализированные автоматические прогнозы погоды по пунктам России, СНГ и мира в авиационном формате (включающие направление и скорость ветра, видимость, явления погоды, количество и форму облачности, нижнюю и верхнюю границу облачности).

Рекомендуем: Противокоррозионная полимерная ингибированная пленка.

Погода Окунев Нос - сегодня

Время (UTC), дата Ветер
(°,м/с) 
Видим.   Явления Облачность Т
(°С)
Тd
(°С)
f(%) Тe
(°С)
Pmin
(гПа)
dP
(гПа)
Po
(мм)
O2
(г/м3)
Тmin Tmax R s Состояние
почвы
06 14.10.17 040 (СВ) 0900 м  туман  ?/?  
-0.9 -0.9 100 1016.9  0.4  761  308  -1.2         
09 14.10.17 360 (С) 0800 м  туман  ?/?  
-0.7 -0.7 100 1017.1  0.2  761  307           
12 14.10.17 040 (СВ) 1300 м  дымка{туман}  10/10 180 м 
[St]
-0.6 -0.6 100 1017  -0.1  761  307           
15 14.10.17 030 (СВ) 0900 м  туман  ?/?  
-1.1 -1.1 100 -2  1017  761  308    -0.5       
18 14.10.17 030 (СВ) 0900 м  туман  ?/?  
-1.4 -1.4 100 -1  1016.7  -0.3  760  308           
00 15.10.17 070 (В) 0900 м  туман  ?/?  
-0.9 -0.9 100 1015.5  -0.6  760  307           
03 15.10.17 090 (В) н/о    н/о 
-0.3 -0.3 100 1015  -0.5  759  306  -1.6         
06 15.10.17 060 (СВ) 10 км  дымка{туман}  10/10 240 м 
[St]
-0.1 -0.1 100 -1  1014.7  -0.3  759  306           
09 15.10.17 070 (В) 20000 м    10/10 270 м 
[St]
+0.8 +0.6 99 -1  1014.5  -0.2  759  305           
12 15.10.17 070 (В) 20000 м    10/10 270 м 
[St]
-0.8 -1.1 98 -3  1014.9  0.4  759  307           
15 15.10.17 080 (В) 50000 м    10/10 240 м 
[St]
-1.6 -1.7 99 -4  1015.3  0.4  759  308    +0.8       
18 15.10.17 070 (В) 50000 м    10/10 300 м 
[St]
-2.8 -3.2 97 -6  1015.5  0.4  760  310           
00 16.10.17 080 (В) 50000 м    10/10 400 м 
[Sc]
-1 -1.4 97 -2  1014.9  -0.3  759  307           
03 16.10.17 090 (В) 14000 м  слаб. переохл. дождь (гололёд) [диам. гололёда 0 мм]  10/10 420 м 
[Sc]
-0.9 -1.2 98 -2  1014.7  -0.2  759  307  -2.8    0.0     
06 16.10.17 100 (В) 20000 м  в посл. час переохл. осадки (гололёд){дождь} [диам. гололёда 1 мм]  10/0 средняя 
[Ac As]
-1 -1.6 96 -3  1013.9  -0.8  758  307           
09 16.10.17 100 (В) 20000 м    10/0 средняя 
[Ac As]
+0.8 +0 94 1012.8  -1.1  758  304           
12 16.10.17 120 (ЮВ) 20000 м    9/0 средняя 
[Ac As]
+2.7 +1.7 93 +1  1011.5  -1.2  757  302           
15 16.10.17 140 (ЮВ) 50000 м    10/0 средняя 
[Ac As]
+3.5 +2.3 92 +3  1010.2  -1.3  756  300    +3.5       
18 16.10.17 180 (Ю) 50000 м    10/0 средняя 
[Ac As]
+4.6 +3.4 92 +3  1008.4  -1.8  754  298           
00 17.10.17 170 (Ю) 50000 м    10/10 400 м 
[Sc]
+5 +4.1 94 +3  1003.7  -2.1  751  296           
03 17.10.17 140 (ЮВ) 50000 м    10/3 600 м средняя 
[Sc|Ac As]
+4.5 +3.8 95 +3  1000.8  -2.9  749  296  +3.5         
06 17.10.17 140 (ЮВ) 20000 м    9/9 420 м 
[Sc]
+5.1 +3.9 92 +3  998.3  -2.4  747  295           
09 17.10.17 150 (ЮВ) 20000 м    10/10 420 м 
[Sc]
+5.4 +4.3 93 +4  996.7  -1.6  746  294           
12 17.10.17 120 (ЮВ) 20000 м    10/10 540 м 
[Sc|Ac und]
+5.7 +4.3 91 +5  994.6  -2  744  293           
15 17.10.17 100 (В) 11000 м  слаб. дождь  10/10 700 м 
[Sc]
+5.3 +4.7 96 +4  993  -1.7  743  293    +5.7  0.0     
Время (UTC), дата Ветер
(°,м/с) 
Видим.   Явления Облачность Т
(°С)
Тd
(°С)
f(%) Тe
(°С)
Pmin
(гПа)
dP
(гПа)
Po
(мм)
O2
(г/м3)
Тmin Tmax R s Состояние
почвы

Для получения пояснительной информации подведите курсор к названию столбца.

ПОГОДА Окунев Нос - архив

Всё, что Вы хотите узнать о погоде Окунев Нос - удобно и подробно!

Выберите нужную дату (начиная с 1 января 2015* года) и нажмите кнопку "Найти".
Будут отображены архивные сводки погоды по пункту Окунев Нос, начиная с указанной даты.


Отображать данные в формате CSV (для использования в таблицах Excel)


Внимание! Наш архив погоды предназначен исключительно для личного некоммерческого использования в познавательных целях. Если Вам необходимы официальные справки о состоянии погоды (для производственных, юридических, коммерческих и т.п. целей), обращайтесь в органы Росгидромета.

*Примечание: данная дата относится к архиву по метеостанциям СССР (Россия, СНГ, Балтия).
Архив по метеостанциям Зарубежной Европы и Азии (кроме Китая) хранится 10 дней, по другим регионам земного шара (Китай, Африка, Америка, Австралия, Океания) - 1 день.

Окунев Нос - район местоположения метеостанции


Название, широта, долгота, высота метеостанции:
Окунев Нос 66.2°ш. 52.6°д. 20 м над ур. моря [Российская Федерация]

Дополнительная информация

В oтличие oт бoльшинства пoгoдных сайтoв мы публикуем пoдрoбную метеoинфoрмацию в детальнoм прoфессиoнальнoм фoрмате.

Характеристики температуры и влажнoсти вoздуха измеряются на высoте 2 м в тени вдали oт зданий и деревьев.
Скoрoсть ветра измеряется на высoте 10 м (на урoвне рoста челoвека скoрoсть ветра ниже в 1.5-2 раза). Если метеoстанция нахoдится в гoрoде или в лесу, тo скoрoсть ветра занижена на 2-4 м/с пo сравнению с oткрытым местoм. Скoрoсть ветра над акватoриями крупных рек и oзёр, а также на вершинах хoлмoв на 2-5 м/с выше, чем в oбычных услoвиях.
Атмoсфернoе давление в разных тoчках местнoсти мoжет значительнo oтличаться oт давления на метеoстанции, в зависимoсти oт услoвий рельефа (при пoдъёме на 10 м давление пoнижается примернo на 1 мм рт.ст.).